Location: *
(58.7167°N, 26.1833°E)
Time: 04:41:52
(UTC+00:00)

Cosmos 1733 - Pass Details

Date: 25 August 2019
Orbit: 506 x 523 km, 82.5° (Epoch: 22 September)

Event Time Altitude Azimuth Distance (km) Brightness Sun altitude
Exits shadow 22:06:02 47° 106° (ESE) 685 3.6 -20.6°
Maximum altitude 22:06:13 48° 96° (E) 681 3.6 -20.6°
Drops below altitude 10° 22:09:53 10° 22° (NNE) 1,739 6.8 -20.7°
Sets 22:12:04 0° 17° (NNE) 2,628 8.1 -20.7°
